COSMOS 1275 DEB, 42119

Orbit data source: Space-Track

COSMOS 1275 DEB, 42119 is space debris in LEO originally from a launch on Thu, 04 Jun 1981 UTC launched from the Plesetsk Missile And Space Complex (PKMTR). Debris objects in space refer to the collection of defunct objects orbiting the Earth. Examples of debris include non-operational satellites, rocket bodies, and fragments generated from explosions, collisions, or faulty payload assembly.

Loading next visibility...
COSMOS 1275 DEB details
Identifier
42119, 1981-053QF
Orbit
LEO
Last TLE update2 months ago
Origin
Flag of CISGUKOS (CIS)
ManufacturerUnknown
MissionSpacecraft
Bus & MotorUnknown
MassUnknown
Launch date (UTC)
1981-06-04 (44 years ago)
Launch vehicleUnknown
Launch site
Plesetsk Missile And Space Complex (PKMTR)
Object type
Payload
Rocket body
Debris
Shape & HBRUnknown
Radar Cross SectionSmall (<0.1 m²)

Expand to show TLE details & history

TLE from 2 months ago
0 COSMOS 1275 DEB
1 42119U 81053QF  24297.34420029  .00001497  00000-0  12675-2 0  9996
2 42119  83.1749 321.8065 0047362  34.3820 326.0392 13.86426528 23801
Epoch: 2024-10-23T08:15Z
Definitive object data (Epoch: 2024-10-23T08:15:38.905Z)
Latitude0.00001°
Longitude165.65089°
Altitude915.396 km
Speed7.409 km/s
True Right ascension21h 27m 13s
True Declination0° 00' 00"
Sunlit
Object was in daylight at TLE epoch
Visualization TLE readout
Latitude-45.192°
Longitude-43.71198°
Altitude927.264 km
Speed7.403 km/s
Apparent Right ascension08h 31m 30s
Apparent Declination-43° 39' 43"
Sunlit
Object is in daylight
Visualization observer readout
Local Sidereal Time21:36:33
Azimuth112.496° ESE
Elevation-77.332°
Doppler factor1
Orbital elements
Apogee altitude972.957 km
Perigee altitude903.653 km
Semi-major axis7,316.442 km
Eccentricity0.0047362
Inclination83.1749°
RAAN321.8065°
Arg. of periapsis34.382°
True anomaly325.73452°
Mean anomaly326.0392°
Eccentric anomaly325.88701°
Mean motion3.46811 °/min
BSTAR0.0012675
Orbital period103.8 mins
Loading maneuver chart data...
Loading historical data...
Loading historical data...
Loading historical data...
Loading historical data...
Loading historical data...
Loading historical data...
Loading historical data...

COSMOS 1275 DEB Visibility forecast

Observer location: undefined°, undefined

Span
Click to sort rows by Start time (UTC) header in descending order
Start Az.
Max El. time (UTC)
Max El. Az.
Max El.
End time (UTC)
End Az.
11 mins2024-12-12 07:21:25.378Z9.528° NNE2024-12-12 07:26:25.378Z65.311° ENE31.581°2024-12-12 07:32:25.378Z143.781° SSE
8 mins2024-12-12 09:07:25.378Z323.819° NNW2024-12-12 09:11:25.378Z271.939° WNW26.197°2024-12-12 09:15:25.378Z222.073° SW
10 mins2024-12-12 20:45:25.378Z180.501° SSW2024-12-12 20:49:25.378Z137.263° SSE44.565°2024-12-12 20:55:25.378Z8.681° NNE
4 mins2024-12-12 22:33:25.378Z275.998° WNW2024-12-12 22:35:25.378Z297.17° NW13.947°2024-12-12 22:37:25.378Z317.448° NNW
|